Year,Month,Day,Hour,Minute,Value (Times are PST for temperature in C)
2016,06,15,00,00,6.30
2016,06,15,00,01,6.30
2016,06,15,00,02,6.30
2016,06,15,00,03,6.30
2016,06,15,00,04,6.30
2016,06,15,00,05,6.30
2016,06,15,00,06,6.20
2016,06,15,00,07,6.20
2016,06,15,00,08,6.20
2016,06,15,00,09,6.20
2016,06,15,00,10,6.10
2016,06,15,00,11,6.10
2016,06,15,00,12,6.10
2016,06,15,00,13,6.00
2016,06,15,00,14,6.00
2016,06,15,00,15,5.90
2016,06,15,00,16,5.90
2016,06,15,00,17,5.90
2016,06,15,00,18,5.90
2016,06,15,00,19,5.90
2016,06,15,00,20,5.90
2016,06,15,00,21,5.90
2016,06,15,00,22,5.90
2016,06,15,00,23,5.90
2016,06,15,00,24,5.90
2016,06,15,00,25,5.90
2016,06,15,00,26,5.90
2016,06,15,00,27,5.80
2016,06,15,00,28,5.80
2016,06,15,00,29,5.80
2016,06,15,00,30,5.80
2016,06,15,00,31,5.80
2016,06,15,00,32,5.80
2016,06,15,00,33,5.80
2016,06,15,00,34,5.80
2016,06,15,00,35,5.80
2016,06,15,00,36,5.80
2016,06,15,00,37,5.80
2016,06,15,00,38,5.80
2016,06,15,00,39,5.80
2016,06,15,00,40,5.80
2016,06,15,00,41,5.80
2016,06,15,00,42,5.80
2016,06,15,00,43,5.80
2016,06,15,00,44,5.80
2016,06,15,00,45,5.80
2016,06,15,00,46,5.80
2016,06,15,00,47,5.80
2016,06,15,00,48,5.80
2016,06,15,00,49,5.80
2016,06,15,00,50,5.70
2016,06,15,00,51,5.70
2016,06,15,00,52,5.70
2016,06,15,00,53,5.70
2016,06,15,00,54,5.70
2016,06,15,00,55,5.60
2016,06,15,00,56,5.60
2016,06,15,00,57,5.60
2016,06,15,00,58,5.50
2016,06,15,00,59,5.50
2016,06,15,01,00,5.40
2016,06,15,01,01,5.40
2016,06,15,01,02,5.40
2016,06,15,01,03,5.40
2016,06,15,01,04,5.40
2016,06,15,01,05,5.40
2016,06,15,01,06,5.40
2016,06,15,01,07,5.40
2016,06,15,01,08,5.40
2016,06,15,01,09,5.40
2016,06,15,01,10,5.40
2016,06,15,01,11,5.40
2016,06,15,01,12,5.40
2016,06,15,01,13,5.40
2016,06,15,01,14,5.40
2016,06,15,01,15,5.40
2016,06,15,01,16,5.40
2016,06,15,01,17,5.40
2016,06,15,01,18,5.40
2016,06,15,01,19,5.40
2016,06,15,01,20,5.40
2016,06,15,01,21,5.40
2016,06,15,01,22,5.40
2016,06,15,01,23,5.40
2016,06,15,01,24,5.40
2016,06,15,01,25,5.40
2016,06,15,01,26,5.30
2016,06,15,01,27,5.30
2016,06,15,01,28,5.30
2016,06,15,01,29,5.30
2016,06,15,01,30,5.30
2016,06,15,01,31,5.30
2016,06,15,01,32,5.30
2016,06,15,01,33,5.30
2016,06,15,01,34,5.30
2016,06,15,01,35,5.30
2016,06,15,01,36,5.30
2016,06,15,01,37,5.30
2016,06,15,01,38,5.40
2016,06,15,01,39,5.40
2016,06,15,01,40,5.40
2016,06,15,01,41,5.40
2016,06,15,01,42,5.40
2016,06,15,01,43,5.50
2016,06,15,01,44,5.50
2016,06,15,01,45,5.50
2016,06,15,01,46,5.50
2016,06,15,01,47,5.60
2016,06,15,01,48,5.60
2016,06,15,01,49,5.60
2016,06,15,01,50,5.60
2016,06,15,01,51,5.60
2016,06,15,01,52,5.60
2016,06,15,01,53,5.60
2016,06,15,01,54,5.60
2016,06,15,01,55,5.60
2016,06,15,01,56,5.60
2016,06,15,01,57,5.60
2016,06,15,01,58,5.60
2016,06,15,01,59,5.60
2016,06,15,02,00,5.60
2016,06,15,02,01,5.60
2016,06,15,02,02,5.70
2016,06,15,02,03,5.70
2016,06,15,02,04,5.70
2016,06,15,02,05,5.70
2016,06,15,02,06,5.70
2016,06,15,02,07,5.70
2016,06,15,02,08,5.70
2016,06,15,02,09,5.70
2016,06,15,02,10,5.80
2016,06,15,02,11,5.80
2016,06,15,02,12,5.80
2016,06,15,02,13,5.80
2016,06,15,02,14,5.80
2016,06,15,02,15,5.80
2016,06,15,02,16,5.80
2016,06,15,02,17,5.80
2016,06,15,02,18,5.80
2016,06,15,02,19,5.80
2016,06,15,02,20,5.80
2016,06,15,02,21,5.80
2016,06,15,02,22,5.90
2016,06,15,02,23,5.90
2016,06,15,02,24,5.90
2016,06,15,02,25,5.90
2016,06,15,02,26,5.90
2016,06,15,02,27,5.90
2016,06,15,02,28,6.00
2016,06,15,02,29,6.00
2016,06,15,02,30,6.00
2016,06,15,02,31,6.10
2016,06,15,02,32,6.10
2016,06,15,02,33,6.10
2016,06,15,02,34,6.20
2016,06,15,02,35,6.20
2016,06,15,02,36,6.20
2016,06,15,02,37,6.20
2016,06,15,02,38,6.20
2016,06,15,02,39,6.20
2016,06,15,02,40,6.20
2016,06,15,02,41,6.20
2016,06,15,02,42,6.20
2016,06,15,02,43,6.20
2016,06,15,02,44,6.20
2016,06,15,02,45,6.20
2016,06,15,02,46,6.20
2016,06,15,02,47,6.20
2016,06,15,02,48,6.20
2016,06,15,02,49,6.20
2016,06,15,02,50,6.20
2016,06,15,02,51,6.30
2016,06,15,02,52,6.30
2016,06,15,02,53,6.30
2016,06,15,02,54,6.30
2016,06,15,02,55,6.30
2016,06,15,02,56,6.30
2016,06,15,02,57,6.30
2016,06,15,02,58,6.30
2016,06,15,02,59,6.30
2016,06,15,03,00,6.30
2016,06,15,03,01,6.30
2016,06,15,03,02,6.40
2016,06,15,03,06,6.40
2016,06,15,03,07,6.40
2016,06,15,03,08,6.40
2016,06,15,03,09,6.40
2016,06,15,03,10,6.40
2016,06,15,03,11,6.40
2016,06,15,03,12,6.40
2016,06,15,03,13,6.40
2016,06,15,03,14,6.40
2016,06,15,03,15,6.40
2016,06,15,03,16,6.40
2016,06,15,03,17,6.40
2016,06,15,03,18,6.50
2016,06,15,03,19,6.50
2016,06,15,03,20,6.50
2016,06,15,03,21,6.50
2016,06,15,03,22,6.50
2016,06,15,03,23,6.50
2016,06,15,03,24,6.50
2016,06,15,03,25,6.60
2016,06,15,03,26,6.60
2016,06,15,03,27,6.60
2016,06,15,03,28,6.60
2016,06,15,03,29,6.60
2016,06,15,03,30,6.60
2016,06,15,03,31,6.70
2016,06,15,03,32,6.70
2016,06,15,03,33,6.70
2016,06,15,03,34,6.70
2016,06,15,03,35,6.70
2016,06,15,03,36,6.70
2016,06,15,03,37,6.80
2016,06,15,03,38,6.80
2016,06,15,03,39,6.80
2016,06,15,03,40,6.80
2016,06,15,03,41,6.80
2016,06,15,03,42,6.80
2016,06,15,03,43,6.80
2016,06,15,03,44,6.80
2016,06,15,03,45,6.80
2016,06,15,03,46,6.80
2016,06,15,03,47,6.80
2016,06,15,03,48,6.90
2016,06,15,03,49,6.90
2016,06,15,03,50,6.90
2016,06,15,03,51,6.90
2016,06,15,03,52,6.90
2016,06,15,03,53,6.90
2016,06,15,03,54,6.90
2016,06,15,03,55,6.90
2016,06,15,03,56,6.90
2016,06,15,03,57,6.90
2016,06,15,03,58,6.90
2016,06,15,03,59,6.90
2016,06,15,04,00,6.90
2016,06,15,04,01,6.90
2016,06,15,04,02,6.90
2016,06,15,04,03,6.90
2016,06,15,04,04,6.90
2016,06,15,04,05,6.90
2016,06,15,04,06,6.90
2016,06,15,04,07,6.90
2016,06,15,04,08,7.00
2016,06,15,04,09,7.00
2016,06,15,04,10,7.00
2016,06,15,04,11,7.00
2016,06,15,04,12,7.00
2016,06,15,04,13,7.00
2016,06,15,04,14,7.00
2016,06,15,04,15,7.10
2016,06,15,04,16,7.10
2016,06,15,04,17,7.10
2016,06,15,04,18,7.10
2016,06,15,04,19,7.10
2016,06,15,04,20,7.10
2016,06,15,04,21,7.10
2016,06,15,04,22,7.10
2016,06,15,04,23,7.10
2016,06,15,04,24,7.10
2016,06,15,04,25,7.10
2016,06,15,04,26,7.10
2016,06,15,04,27,7.10
2016,06,15,04,28,7.10
2016,06,15,04,29,7.10
2016,06,15,04,30,7.10
2016,06,15,04,31,7.10
2016,06,15,04,32,7.10
2016,06,15,04,33,7.10
2016,06,15,04,34,7.10
2016,06,15,04,35,7.10
2016,06,15,04,36,7.10
2016,06,15,04,37,7.10
2016,06,15,04,38,7.10
2016,06,15,04,39,7.10
2016,06,15,04,40,7.10
2016,06,15,04,41,7.10
2016,06,15,04,42,7.00
2016,06,15,04,43,7.00
2016,06,15,04,44,7.00
2016,06,15,04,45,7.00
2016,06,15,04,46,7.00
2016,06,15,04,47,7.00
2016,06,15,04,48,7.00
2016,06,15,04,49,7.00
2016,06,15,04,50,7.00
2016,06,15,04,51,7.00
2016,06,15,04,52,7.00
2016,06,15,04,53,7.00
2016,06,15,04,54,7.00
2016,06,15,04,55,6.90
2016,06,15,04,56,6.90
2016,06,15,04,57,6.90
2016,06,15,04,58,6.90
2016,06,15,04,59,6.80
2016,06,15,05,00,6.80
2016,06,15,05,01,6.80
2016,06,15,05,02,6.80
2016,06,15,05,03,6.80
2016,06,15,05,04,6.80
2016,06,15,05,05,6.80
2016,06,15,05,06,6.80
2016,06,15,05,07,6.80
2016,06,15,05,08,6.70
2016,06,15,05,09,6.70
2016,06,15,05,10,6.80
2016,06,15,05,11,6.80
2016,06,15,05,12,6.80
2016,06,15,05,13,6.80
2016,06,15,05,14,6.80
2016,06,15,05,15,6.80
2016,06,15,05,16,6.80
2016,06,15,05,17,6.80
2016,06,15,05,18,6.70
2016,06,15,05,19,6.70
2016,06,15,05,20,6.70
2016,06,15,05,21,6.70
2016,06,15,05,22,6.70
2016,06,15,05,23,6.60
2016,06,15,05,24,6.60
2016,06,15,05,25,6.60
2016,06,15,05,26,6.60
2016,06,15,05,27,6.60
2016,06,15,05,28,6.50
2016,06,15,05,29,6.50
2016,06,15,05,30,6.50
2016,06,15,05,31,6.50
2016,06,15,05,32,6.40
2016,06,15,05,33,6.40
2016,06,15,05,34,6.40
2016,06,15,05,35,6.40
2016,06,15,05,36,6.40
2016,06,15,05,37,6.40
2016,06,15,05,38,6.40
2016,06,15,05,39,6.40
2016,06,15,05,40,6.40
2016,06,15,05,41,6.40
2016,06,15,05,42,6.50
2016,06,15,05,43,6.40
2016,06,15,05,44,6.50
2016,06,15,05,45,6.50
2016,06,15,05,46,6.40
2016,06,15,05,47,6.40
2016,06,15,05,48,6.40
2016,06,15,05,49,6.40
2016,06,15,05,50,6.40
2016,06,15,05,51,6.40
2016,06,15,05,52,6.40
2016,06,15,05,53,6.30
2016,06,15,05,54,6.30
2016,06,15,05,55,6.30
2016,06,15,05,56,6.30
2016,06,15,05,57,6.30
2016,06,15,05,58,6.30
2016,06,15,05,59,6.30
2016,06,15,06,00,6.30
2016,06,15,06,01,6.30
2016,06,15,06,02,6.40
2016,06,15,06,03,6.40
2016,06,15,06,04,6.40
2016,06,15,06,05,6.40
2016,06,15,06,06,6.40
2016,06,15,06,07,6.40
2016,06,15,06,08,6.40
2016,06,15,06,09,6.50
2016,06,15,06,10,6.50
2016,06,15,06,11,6.60
2016,06,15,06,12,6.60
2016,06,15,06,13,6.60
2016,06,15,06,14,6.60
2016,06,15,06,15,6.60
2016,06,15,06,16,6.70
2016,06,15,06,17,6.70
2016,06,15,06,18,6.70
2016,06,15,06,19,6.70
2016,06,15,06,20,6.70
2016,06,15,06,21,6.80
2016,06,15,06,22,6.80
2016,06,15,06,23,6.80
2016,06,15,06,24,6.90
2016,06,15,06,25,6.90
2016,06,15,06,26,6.90
2016,06,15,06,27,7.00
2016,06,15,06,28,7.00
2016,06,15,06,29,7.10
2016,06,15,06,30,7.10
2016,06,15,06,31,7.20
2016,06,15,06,32,7.20
2016,06,15,06,33,7.20
2016,06,15,06,34,7.30
2016,06,15,06,35,7.30
2016,06,15,06,36,7.30
2016,06,15,06,37,7.30
2016,06,15,06,38,7.30
2016,06,15,06,39,7.40
2016,06,15,06,40,7.40
2016,06,15,06,41,7.40
2016,06,15,06,42,7.40
2016,06,15,06,43,7.40
2016,06,15,06,44,7.40
2016,06,15,06,45,7.40
2016,06,15,06,46,7.50
2016,06,15,06,47,7.50
2016,06,15,06,48,7.50
2016,06,15,06,49,7.60
2016,06,15,06,50,7.60
2016,06,15,06,51,7.60
2016,06,15,06,52,7.60
2016,06,15,06,53,7.70
2016,06,15,06,54,7.70
2016,06,15,06,55,7.70
2016,06,15,06,56,7.80
2016,06,15,06,57,7.80
2016,06,15,06,58,7.90
2016,06,15,06,59,7.90
2016,06,15,07,00,8.00
2016,06,15,07,01,8.00
2016,06,15,07,02,8.00
2016,06,15,07,03,8.10
2016,06,15,07,04,8.10
2016,06,15,07,05,8.10
2016,06,15,07,06,8.10
2016,06,15,07,07,8.20
2016,06,15,07,08,8.20
2016,06,15,07,09,8.20
2016,06,15,07,10,8.30
2016,06,15,07,11,8.30
2016,06,15,07,12,8.40
2016,06,15,07,13,8.40
2016,06,15,07,14,8.50
2016,06,15,07,15,8.50
2016,06,15,07,16,8.60
2016,06,15,07,17,8.60
2016,06,15,07,18,8.70
2016,06,15,07,19,8.70
2016,06,15,07,20,8.80
2016,06,15,07,21,8.80
2016,06,15,07,22,8.90
2016,06,15,07,23,9.00
2016,06,15,07,24,9.10
2016,06,15,07,25,9.20
2016,06,15,07,26,9.30
2016,06,15,07,27,9.30
2016,06,15,07,28,9.30
2016,06,15,07,29,9.40
2016,06,15,07,30,9.40
2016,06,15,07,31,9.40
2016,06,15,07,32,9.50
2016,06,15,07,33,9.60
2016,06,15,07,34,9.70
2016,06,15,07,35,9.70
2016,06,15,07,36,9.80
2016,06,15,07,37,9.80
2016,06,15,07,38,9.80
2016,06,15,07,39,9.90
2016,06,15,07,40,9.90
2016,06,15,07,41,9.90
2016,06,15,07,42,10.00
2016,06,15,07,43,10.10
2016,06,15,07,44,10.10
2016,06,15,07,45,10.20
2016,06,15,07,46,10.20
2016,06,15,07,47,10.30
2016,06,15,07,48,10.30
2016,06,15,07,49,10.30
2016,06,15,07,50,10.40
2016,06,15,07,51,10.50
2016,06,15,07,52,10.50
2016,06,15,07,53,10.60
2016,06,15,07,54,10.60
2016,06,15,07,55,10.60
2016,06,15,07,56,10.60
2016,06,15,07,57,10.70
2016,06,15,07,58,10.70
2016,06,15,07,59,10.70
2016,06,15,08,00,10.80
2016,06,15,08,01,10.80
2016,06,15,08,02,10.80
2016,06,15,08,03,10.80
2016,06,15,08,04,10.90
2016,06,15,08,05,10.90
2016,06,15,08,06,10.90
2016,06,15,08,07,11.00
2016,06,15,08,08,11.00
2016,06,15,08,09,11.10
2016,06,15,08,10,11.10
2016,06,15,08,11,11.10
2016,06,15,08,12,11.10
2016,06,15,08,13,11.10
2016,06,15,08,14,11.20
2016,06,15,08,15,11.20
2016,06,15,08,16,11.20
2016,06,15,08,17,11.30
2016,06,15,08,18,11.20
2016,06,15,08,19,11.20
2016,06,15,08,20,11.20
2016,06,15,08,21,11.20
2016,06,15,08,22,11.30
2016,06,15,08,23,11.30
2016,06,15,08,24,11.30
2016,06,15,08,25,11.30
2016,06,15,08,26,11.30
2016,06,15,08,27,11.30
2016,06,15,08,28,11.30
2016,06,15,08,29,11.40
2016,06,15,08,30,11.40
2016,06,15,08,31,11.50
2016,06,15,08,32,11.70
2016,06,15,08,33,11.80
2016,06,15,08,34,11.90
2016,06,15,08,35,11.90
2016,06,15,08,36,12.00
2016,06,15,08,37,12.00
2016,06,15,08,38,12.00
2016,06,15,08,39,11.90
2016,06,15,08,40,11.90
2016,06,15,08,41,11.80
2016,06,15,08,42,11.90
2016,06,15,08,43,11.90
2016,06,15,08,44,12.00
2016,06,15,08,45,12.10
2016,06,15,08,46,12.10
2016,06,15,08,47,12.10
2016,06,15,08,48,12.10
2016,06,15,08,49,12.20
2016,06,15,08,50,12.20
2016,06,15,08,51,12.30
2016,06,15,08,52,12.30
2016,06,15,08,53,12.30
2016,06,15,08,54,12.30
2016,06,15,08,55,12.40
2016,06,15,08,56,12.50
2016,06,15,08,57,12.60
2016,06,15,08,58,12.70
2016,06,15,08,59,12.80
2016,06,15,09,00,12.80
2016,06,15,09,01,12.90
2016,06,15,09,02,12.90
2016,06,15,09,03,12.80
2016,06,15,09,04,12.80
2016,06,15,09,05,12.70
2016,06,15,09,06,12.70
2016,06,15,09,07,12.70
2016,06,15,09,08,12.80
2016,06,15,09,09,12.80
2016,06,15,09,10,12.80
2016,06,15,09,11,12.80
2016,06,15,09,12,12.90
2016,06,15,09,13,12.80
2016,06,15,09,14,12.80
2016,06,15,09,15,12.90
2016,06,15,09,16,12.80
2016,06,15,09,17,12.90
2016,06,15,09,18,13.00
2016,06,15,09,19,13.20
2016,06,15,09,20,13.30
2016,06,15,09,21,13.40
2016,06,15,09,22,13.50
2016,06,15,09,23,13.60
2016,06,15,09,24,13.70
2016,06,15,09,25,13.70
2016,06,15,09,26,13.80
2016,06,15,09,27,13.80
2016,06,15,09,28,13.80
2016,06,15,09,29,13.80
2016,06,15,09,30,13.70
2016,06,15,09,31,13.70
2016,06,15,09,32,13.70
2016,06,15,09,33,13.70
2016,06,15,09,34,13.70
2016,06,15,09,35,13.70
2016,06,15,09,36,13.80
2016,06,15,09,37,13.80
2016,06,15,09,38,13.60
2016,06,15,09,39,13.40
2016,06,15,09,40,13.50
2016,06,15,09,41,13.50
2016,06,15,09,42,13.60
2016,06,15,09,43,13.60
2016,06,15,09,44,13.70
2016,06,15,09,45,13.70
2016,06,15,09,46,13.80
2016,06,15,09,47,13.90
2016,06,15,09,48,14.10
2016,06,15,09,49,14.10
2016,06,15,09,50,14.10
2016,06,15,09,51,14.00
2016,06,15,09,52,13.80
2016,06,15,09,53,13.60
2016,06,15,09,54,13.50
2016,06,15,09,55,13.40
2016,06,15,09,56,13.30
2016,06,15,09,57,13.30
2016,06,15,09,58,13.30
2016,06,15,09,59,13.30
2016,06,15,10,00,13.40
2016,06,15,10,01,13.50
2016,06,15,10,02,13.60
2016,06,15,10,03,13.80
2016,06,15,10,04,13.80
2016,06,15,10,05,13.90
2016,06,15,10,06,14.00
2016,06,15,10,07,14.10
2016,06,15,10,08,14.20
2016,06,15,10,09,14.30
2016,06,15,10,10,14.40
2016,06,15,10,11,14.40
2016,06,15,10,12,14.30
2016,06,15,10,13,14.30
2016,06,15,10,14,14.30
2016,06,15,10,15,14.20
2016,06,15,10,16,14.20
2016,06,15,10,17,14.20
2016,06,15,10,18,14.20
2016,06,15,10,19,14.10
2016,06,15,10,20,14.10
2016,06,15,10,21,14.10
2016,06,15,10,22,14.10
2016,06,15,10,23,14.20
2016,06,15,10,24,14.20
2016,06,15,10,25,14.30
2016,06,15,10,26,14.50
2016,06,15,10,27,14.60
2016,06,15,10,28,14.60
2016,06,15,10,29,14.50
2016,06,15,10,30,14.40
2016,06,15,10,31,14.40
2016,06,15,10,32,14.40
2016,06,15,10,33,14.30
2016,06,15,10,34,14.30
2016,06,15,10,35,14.20
2016,06,15,10,36,14.30
2016,06,15,10,37,14.30
2016,06,15,10,38,14.30
2016,06,15,10,39,14.20
2016,06,15,10,40,14.30
2016,06,15,10,41,14.30
2016,06,15,10,42,14.30
2016,06,15,10,43,14.30
2016,06,15,10,44,14.40
2016,06,15,10,45,14.60
2016,06,15,10,46,14.80
2016,06,15,10,47,14.80
2016,06,15,10,48,14.80
2016,06,15,10,49,14.80
2016,06,15,10,50,14.80
2016,06,15,10,51,14.70
2016,06,15,10,52,14.70
2016,06,15,10,53,14.60
2016,06,15,10,54,14.70
2016,06,15,10,55,14.60
2016,06,15,10,56,14.40
2016,06,15,10,57,14.50
2016,06,15,10,58,14.60
2016,06,15,10,59,14.60
2016,06,15,11,00,14.40
2016,06,15,11,01,14.30
2016,06,15,11,02,14.30
2016,06,15,11,03,14.20
2016,06,15,11,04,14.20
2016,06,15,11,05,14.20
2016,06,15,11,06,14.10
2016,06,15,11,07,14.20
2016,06,15,11,08,14.20
2016,06,15,11,09,14.30
2016,06,15,11,10,14.20
2016,06,15,11,11,14.20
2016,06,15,11,12,14.20
2016,06,15,11,13,14.30
2016,06,15,11,14,14.40
2016,06,15,11,15,14.60
2016,06,15,11,16,14.60
2016,06,15,11,17,14.70
2016,06,15,11,18,14.80
2016,06,15,11,19,14.70
2016,06,15,11,20,14.60
2016,06,15,11,21,14.50
2016,06,15,11,22,14.40
2016,06,15,11,23,14.40
2016,06,15,11,24,14.40
2016,06,15,11,25,14.20
2016,06,15,11,26,13.90
2016,06,15,11,27,13.70
2016,06,15,11,28,13.50
2016,06,15,11,29,13.30
2016,06,15,11,30,13.20
2016,06,15,11,31,13.20
2016,06,15,11,32,13.20
2016,06,15,11,33,13.20
2016,06,15,11,34,13.20
2016,06,15,11,35,13.30
2016,06,15,11,36,13.30
2016,06,15,11,37,13.30
2016,06,15,11,38,13.30
2016,06,15,11,39,13.20
2016,06,15,11,40,13.20
2016,06,15,11,41,13.20
2016,06,15,11,42,13.20
2016,06,15,11,43,13.30
2016,06,15,11,44,13.30
2016,06,15,11,45,13.40
2016,06,15,11,46,13.40
2016,06,15,11,47,13.50
2016,06,15,11,48,13.60
2016,06,15,11,49,13.70
2016,06,15,11,50,13.70
2016,06,15,11,51,13.70
2016,06,15,11,52,13.70
2016,06,15,11,53,13.70
2016,06,15,11,54,13.70
2016,06,15,11,55,13.60
2016,06,15,11,56,13.60
2016,06,15,11,57,13.60
2016,06,15,11,58,13.50
2016,06,15,11,59,13.50
2016,06,15,12,00,13.50
2016,06,15,12,01,13.50
2016,06,15,12,02,13.40
2016,06,15,12,03,13.40
2016,06,15,12,04,13.40
2016,06,15,12,05,13.40
2016,06,15,12,06,13.40
2016,06,15,12,07,13.40
2016,06,15,12,08,13.40
2016,06,15,12,09,13.30
2016,06,15,12,10,13.30
2016,06,15,12,11,13.20
2016,06,15,12,12,13.20
2016,06,15,12,13,13.20
2016,06,15,12,14,13.20
2016,06,15,12,15,13.20
2016,06,15,12,16,13.30
2016,06,15,12,17,13.30
2016,06,15,12,18,13.40
2016,06,15,12,19,13.50
2016,06,15,12,20,13.60
2016,06,15,12,21,13.80
2016,06,15,12,22,14.00
2016,06,15,12,23,14.20
2016,06,15,12,24,14.40
2016,06,15,12,25,14.50
2016,06,15,12,26,14.60
2016,06,15,12,27,14.70
2016,06,15,12,28,14.70
2016,06,15,12,29,14.80
2016,06,15,12,30,14.90
2016,06,15,12,31,15.00
2016,06,15,12,32,15.00
2016,06,15,12,33,14.90
2016,06,15,12,34,14.60
2016,06,15,12,35,14.40
2016,06,15,12,36,14.30
2016,06,15,12,37,14.30
2016,06,15,12,38,14.20
2016,06,15,12,39,14.20
2016,06,15,12,40,14.20
2016,06,15,12,41,14.30
2016,06,15,12,42,14.40
2016,06,15,12,43,14.50
2016,06,15,12,44,14.70
2016,06,15,12,45,14.80
2016,06,15,12,46,14.80
2016,06,15,12,47,14.90
2016,06,15,12,48,14.90
2016,06,15,12,49,15.00
2016,06,15,12,50,15.10
2016,06,15,12,51,15.00
2016,06,15,12,52,15.00
2016,06,15,12,53,15.10
2016,06,15,12,54,15.20
2016,06,15,12,55,15.30
2016,06,15,12,56,15.40
2016,06,15,12,57,15.40
2016,06,15,12,58,15.40
2016,06,15,12,59,15.40
2016,06,15,13,00,15.40
2016,06,15,13,01,15.20
2016,06,15,13,02,15.00
2016,06,15,13,03,14.80
2016,06,15,13,04,14.80
2016,06,15,13,05,14.70
2016,06,15,13,06,14.50
2016,06,15,13,07,14.50
2016,06,15,13,08,14.50
2016,06,15,13,09,14.40
2016,06,15,13,10,14.40
2016,06,15,13,11,14.40
2016,06,15,13,12,14.40
2016,06,15,13,13,14.40
2016,06,15,13,14,14.60
2016,06,15,13,15,14.80
2016,06,15,13,16,15.00
2016,06,15,13,17,15.20
2016,06,15,13,18,15.30
2016,06,15,13,19,15.40
2016,06,15,13,20,15.50
2016,06,15,13,21,15.60
2016,06,15,13,22,15.60
2016,06,15,13,23,15.70
2016,06,15,13,24,15.70
2016,06,15,13,25,15.60
2016,06,15,13,26,15.40
2016,06,15,13,27,15.20
2016,06,15,13,28,14.90
2016,06,15,13,29,14.80
2016,06,15,13,30,14.70
2016,06,15,13,31,14.60
2016,06,15,13,32,14.60
2016,06,15,13,33,14.60
2016,06,15,13,34,14.60
2016,06,15,13,35,14.60
2016,06,15,13,36,14.70
2016,06,15,13,37,14.70
2016,06,15,13,38,14.70
2016,06,15,13,39,14.80
2016,06,15,13,40,14.80
2016,06,15,13,41,14.80
2016,06,15,13,42,14.80
2016,06,15,13,43,14.90
2016,06,15,13,44,14.90
2016,06,15,13,45,14.80
2016,06,15,13,46,14.70
2016,06,15,13,47,14.60
2016,06,15,13,48,14.60
2016,06,15,13,49,14.60
2016,06,15,13,50,14.50
2016,06,15,13,51,14.40
2016,06,15,13,52,14.40
2016,06,15,13,53,14.30
2016,06,15,13,54,14.20
2016,06,15,13,55,14.10
2016,06,15,13,56,14.00
2016,06,15,13,57,13.90
2016,06,15,13,58,13.80
2016,06,15,13,59,13.70
2016,06,15,14,00,13.60
2016,06,15,14,01,13.40
2016,06,15,14,02,13.30
2016,06,15,14,03,13.20
2016,06,15,14,04,13.10
2016,06,15,14,05,13.00
2016,06,15,14,06,12.90
2016,06,15,14,07,12.90
2016,06,15,14,08,12.80
2016,06,15,14,09,12.70
2016,06,15,14,10,12.50
2016,06,15,14,11,12.40
2016,06,15,14,12,12.30
2016,06,15,14,13,12.30
2016,06,15,14,14,12.30
2016,06,15,14,15,12.20
2016,06,15,14,16,12.20
2016,06,15,14,17,12.10
2016,06,15,14,18,12.10
2016,06,15,14,19,12.00
2016,06,15,14,20,12.00
2016,06,15,14,21,11.90
2016,06,15,14,22,11.80
2016,06,15,14,23,11.80
2016,06,15,14,24,11.80
2016,06,15,14,25,11.80
2016,06,15,14,26,11.80
2016,06,15,14,27,11.80
2016,06,15,14,28,11.70
2016,06,15,14,29,11.70
2016,06,15,14,30,11.60
2016,06,15,14,31,11.50
2016,06,15,14,32,11.50
2016,06,15,14,33,11.40
2016,06,15,14,34,11.30
2016,06,15,14,35,11.30
2016,06,15,14,36,11.20
2016,06,15,14,37,11.20
2016,06,15,14,38,11.10
2016,06,15,14,39,11.10
2016,06,15,14,40,11.10
2016,06,15,14,41,11.10
2016,06,15,14,42,11.10
2016,06,15,14,43,11.00
2016,06,15,14,44,11.00
2016,06,15,14,45,11.00
2016,06,15,14,46,11.00
2016,06,15,14,47,11.00
2016,06,15,14,48,11.00
2016,06,15,14,49,11.00
2016,06,15,14,50,11.00
2016,06,15,14,51,11.00
2016,06,15,14,52,11.00
2016,06,15,14,53,11.00
2016,06,15,14,54,11.00
2016,06,15,14,55,11.00
2016,06,15,14,56,11.00
2016,06,15,14,57,11.00
2016,06,15,14,58,11.00
2016,06,15,14,59,11.00
2016,06,15,15,00,11.00
2016,06,15,15,01,11.00
2016,06,15,15,02,10.90
2016,06,15,15,03,10.90
2016,06,15,15,04,10.90
2016,06,15,15,05,10.80
2016,06,15,15,06,10.80
2016,06,15,15,07,10.80
2016,06,15,15,08,10.80
2016,06,15,15,09,10.90
2016,06,15,15,10,10.90
2016,06,15,15,11,11.00
2016,06,15,15,12,11.00
2016,06,15,15,13,11.10
2016,06,15,15,14,11.20
2016,06,15,15,15,11.20
2016,06,15,15,16,11.20
2016,06,15,15,17,11.20
2016,06,15,15,18,11.20
2016,06,15,15,19,11.20
2016,06,15,15,20,11.20
2016,06,15,15,21,11.20
2016,06,15,15,22,11.20
2016,06,15,15,23,11.20
2016,06,15,15,24,11.20
2016,06,15,15,25,11.20
2016,06,15,15,26,11.30
2016,06,15,15,27,11.40
2016,06,15,15,28,11.50
2016,06,15,15,29,11.60
2016,06,15,15,30,11.70
2016,06,15,15,31,11.80
2016,06,15,15,32,12.00
2016,06,15,15,33,12.10
2016,06,15,15,34,12.20
2016,06,15,15,35,12.30
2016,06,15,15,36,12.50
2016,06,15,15,37,12.60
2016,06,15,15,38,12.80
2016,06,15,15,39,12.90
2016,06,15,15,40,13.00
2016,06,15,15,41,13.10
2016,06,15,15,42,13.20
2016,06,15,15,43,13.40
2016,06,15,15,44,13.50
2016,06,15,15,45,13.60
2016,06,15,15,46,13.70
2016,06,15,15,47,13.70
2016,06,15,15,48,13.80
2016,06,15,15,49,13.90
2016,06,15,15,50,14.00
2016,06,15,15,51,14.10
2016,06,15,15,52,14.10
2016,06,15,15,53,14.20
2016,06,15,15,54,14.30
2016,06,15,15,55,14.50
2016,06,15,15,56,14.60
2016,06,15,15,57,14.60
2016,06,15,15,58,14.60
2016,06,15,15,59,14.70
2016,06,15,16,00,14.70
2016,06,15,16,01,14.80
2016,06,15,16,02,14.80
2016,06,15,16,03,14.90
2016,06,15,16,04,14.90
2016,06,15,16,05,14.90
2016,06,15,16,06,14.90
2016,06,15,16,07,15.00
2016,06,15,16,08,15.10
2016,06,15,16,09,15.20
2016,06,15,16,10,15.30
2016,06,15,16,11,15.30
2016,06,15,16,12,15.30
2016,06,15,16,13,15.30
2016,06,15,16,14,15.30
2016,06,15,16,15,15.30
2016,06,15,16,16,15.30
2016,06,15,16,17,15.40
2016,06,15,16,18,15.40
2016,06,15,16,19,15.40
2016,06,15,16,20,15.50
2016,06,15,16,21,15.50
2016,06,15,16,22,15.50
2016,06,15,16,23,15.50
2016,06,15,16,24,15.50
2016,06,15,16,25,15.60
2016,06,15,16,26,15.60
2016,06,15,16,27,15.50
2016,06,15,16,28,15.40
2016,06,15,16,29,15.30
2016,06,15,16,30,15.30
2016,06,15,16,31,15.30
2016,06,15,16,32,15.30
2016,06,15,16,33,15.30
2016,06,15,16,34,15.40
2016,06,15,16,35,15.50
2016,06,15,16,36,15.60
2016,06,15,16,37,15.70
2016,06,15,16,38,15.70
2016,06,15,16,39,15.70
2016,06,15,16,40,15.80
2016,06,15,16,41,15.80
2016,06,15,16,42,15.80
2016,06,15,16,43,15.80
2016,06,15,16,44,15.90
2016,06,15,16,45,15.90
2016,06,15,16,46,15.90
2016,06,15,16,47,15.90
2016,06,15,16,48,15.90
2016,06,15,16,49,15.90
2016,06,15,16,50,15.90
2016,06,15,16,51,15.80
2016,06,15,16,52,15.80
2016,06,15,16,53,15.80
2016,06,15,16,54,15.80
2016,06,15,16,55,15.80
2016,06,15,16,56,15.80
2016,06,15,16,57,15.80
2016,06,15,16,58,15.80
2016,06,15,16,59,15.80
2016,06,15,17,00,15.80
2016,06,15,17,01,15.80
2016,06,15,17,02,15.80
2016,06,15,17,03,15.70
2016,06,15,17,04,15.70
2016,06,15,17,05,15.70
2016,06,15,17,06,15.70
2016,06,15,17,07,15.70
2016,06,15,17,08,15.70
2016,06,15,17,09,15.70
2016,06,15,17,10,15.70
2016,06,15,17,11,15.70
2016,06,15,17,12,15.70
2016,06,15,17,13,15.70
2016,06,15,17,14,15.70
2016,06,15,17,15,15.70
2016,06,15,17,16,15.70
2016,06,15,17,17,15.70
2016,06,15,17,18,15.70
2016,06,15,17,19,15.60
2016,06,15,17,20,15.50
2016,06,15,17,21,15.50
2016,06,15,17,22,15.40
2016,06,15,17,23,15.30
2016,06,15,17,24,15.20
2016,06,15,17,25,15.20
2016,06,15,17,26,15.20
2016,06,15,17,27,15.20
2016,06,15,17,28,15.20
2016,06,15,17,29,15.20
2016,06,15,17,30,15.30
2016,06,15,17,31,15.30
2016,06,15,17,32,15.40
2016,06,15,17,33,15.50
2016,06,15,17,34,15.50
2016,06,15,17,35,15.60
2016,06,15,17,36,15.70
2016,06,15,17,37,15.80
2016,06,15,17,38,15.80
2016,06,15,17,39,15.90
2016,06,15,17,40,15.90
2016,06,15,17,41,16.00
2016,06,15,17,42,16.10